Location: Newark
(34.1333°N, 7.9667°W)
Time: 02:41:14
(UTC+00:00)

Courier 1B - All Passes

Search period start: 04 December 2021 00:00
Search period end: 14 December 2021 00:00
Orbit: 962 x 1209 km, 28.3° (Epoch: 03 December)

Date Brightness Start Highest point End Pass type
(mag) Time Alt. Az. Time Alt. Az. Time Alt. Az.
04 Dec - 15:25:36 10° SSW 15:31:51 27° SSE 15:37:53 10° ESE daylight
04 Dec - 17:18:23 10° WSW 17:25:36 48° S 17:32:25 10° E daylight
04 Dec - 19:12:24 10° W 19:19:31 54° S 19:26:10 10° ESE visible
04 Dec - 21:06:54 10° W 21:13:10 35° SSW 21:19:09 10° SE visible
04 Dec - 23:03:11 10° WSW 23:06:24 14° SSW 23:09:34 10° S night (unlit)
05 Dec - 14:32:26 10° SSW 14:38:05 22° SSE 14:43:37 10° ESE daylight
05 Dec - 16:24:35 10° SW 16:31:47 43° SSE 16:38:38 10° E daylight
05 Dec - 18:18:24 10° WSW 18:25:42 55° S 18:32:33 10° ESE visible
05 Dec - 20:12:48 10° W 20:19:30 42° SSW 20:25:50 10° SE visible
05 Dec - 22:08:13 10° WSW 22:12:51 19° SSW 22:17:21 10° SSE visible
06 Dec - 13:39:39 10° S 13:44:20 17° SSE 13:48:58 10° ESE daylight
06 Dec - 15:30:54 10° SW 15:37:57 38° SSE 15:44:45 10° E daylight
06 Dec - 17:24:26 10° WSW 17:31:52 55° S 17:38:52 10° E daylight
06 Dec - 19:18:44 10° W 19:25:46 48° SSW 19:32:23 10° ESE visible
06 Dec - 21:13:42 10° WSW 21:19:17 25° SSW 21:24:37 10° SSE visible
07 Dec - 12:47:40 10° S 12:50:36 12° SSE 12:53:31 10° SE daylight
07 Dec - 14:37:22 10° SW 14:44:08 32° SSE 14:50:44 10° E daylight
07 Dec - 16:30:31 10° WSW 16:38:00 52° S 16:45:08 10° E daylight
07 Dec - 18:24:41 10° W 18:31:59 53° S 18:38:51 10° ESE visible
07 Dec - 20:19:23 10° W 20:25:39 32° SSW 20:31:35 10° SE visible
07 Dec - 22:17:13 10° SW 22:18:50 11° SSW 22:20:27 10° SSW visible
08 Dec - 13:44:02 10° SSW 13:50:20 27° SSE 13:56:33 10° ESE daylight
08 Dec - 15:36:40 10° WSW 15:44:08 48° SSE 15:51:19 10° E daylight
08 Dec - 17:30:39 10° WSW 17:38:08 56° S 17:45:13 10° ESE daylight
08 Dec - 19:25:11 10° W 19:31:57 38° SSW 19:38:21 10° SE visible
08 Dec - 21:21:14 10° WSW 21:25:17 16° SSW 21:29:12 10° S visible
09 Dec - 12:51:00 10° SSW 12:56:33 21° SSE 13:02:06 10° ESE daylight
09 Dec - 14:42:55 10° SW 14:50:14 43° SSE 14:57:24 10° E daylight
09 Dec - 16:36:40 10° WSW 16:44:15 57° S 16:51:31 10° ESE daylight
09 Dec - 18:31:03 10° W 18:38:12 45° SSW 18:44:57 10° SE visible
09 Dec - 20:26:24 10° WSW 20:31:42 22° SSW 20:36:46 10° SSE visible
10 Dec - 11:58:25 10° S 12:02:48 16° SSE 12:07:14 10° ESE daylight
10 Dec - 13:49:18 10° SW 13:56:23 37° SSE 14:03:24 10° E daylight
10 Dec - 15:42:43 10° WSW 15:50:20 55° S 15:57:43 10° E daylight
10 Dec - 17:36:58 10° W 17:44:23 50° S 17:51:26 10° ESE visible
10 Dec - 19:31:54 10° W 19:38:02 28° SSW 19:43:53 10° SSE visible
11 Dec - 11:06:59 10° SSE 11:09:06 11° SSE 11:11:15 10° SE daylight
11 Dec - 12:55:53 10° SW 13:02:33 31° SSE 13:09:15 10° E daylight
11 Dec - 14:48:51 10° WSW 14:56:26 52° S 15:03:52 10° E daylight
11 Dec - 16:42:55 10° W 16:50:30 55° S 16:57:47 10° ESE daylight
11 Dec - 18:37:35 10° W 18:44:20 34° SSW 18:50:45 10° SE visible
11 Dec - 20:34:33 10° WSW 20:37:38 13° SSW 20:40:39 10° S visible
12 Dec - 12:02:42 10° SSW 12:08:46 25° SSE 12:14:56 10° ESE daylight
12 Dec - 13:55:04 10° WSW 14:02:31 48° SSE 14:09:56 10° E daylight
12 Dec - 15:48:56 10° WSW 15:56:35 57° S 16:04:03 10° ESE daylight
12 Dec - 17:43:24 10° W 17:50:34 41° SSW 17:57:24 10° SE visible
12 Dec - 19:39:12 10° WSW 19:44:01 18° SSW 19:48:42 10° SSE visible
13 Dec - 11:09:51 10° SSW 11:15:02 20° SSE 11:20:18 10° ESE daylight
13 Dec - 13:01:26 10° SW 13:08:38 42° SSE 13:15:55 10° E daylight
13 Dec - 14:55:00 10° WSW 15:02:40 57° S 15:10:14 10° ESE daylight
13 Dec - 16:49:17 10° W 16:56:43 47° SSW 17:03:53 10° ESE daylight
13 Dec - 18:44:28 10° WSW 18:50:21 24° SSW 18:56:01 10° SSE visible
